Elbow Lake, MN

12:58 PM CST on February 10, 2016 (GMT -0600)
Elbow Lake

Weather History for KY63 - October, 2013

Change the Weather History Date:

Tuesday, October 29, 2013

  Actual Average (KFFM) Record (KFFM)
Temperature  
Mean Temperature 31 °F -  
Max Temperature 33 °F 49 °F 73 °F (1950)
Min Temperature 29 °F 29 °F 3 °F (1996)
Degree Days  
Heating Degree Days 34    
Moisture  
Dew Point 29 °F    
Average Humidity 89    
Maximum Humidity 99    
Minimum Humidity 69    
Precipitation  
Precipitation 0.01 in - - ()
Sea Level Pressure  
Sea Level Pressure 30.24 in    
Wind  
Wind Speed 6 mph (ENE)    
Max Wind Speed 10 mph    
Max Gust Speed -    
Visibility 7 miles    
Events Rain , Snow    
Averages and records for this station are not official NWS values.
T = Trace of Precipitation, MM = Missing Value Source: NWS Daily Summary

Daily Weather History Graph

Daily Weather History Graph

Search for Another Location

Airport or City:

Trip Planner

Search our weather history database for the weather conditions in past years. The results will help you decide how hot, cold, wet, or windy it might be!

Date:

Astronomy

Oct. 29, 2013 Rise Set
Actual Time 8:00 AM CDT 6:14 PM CDT
Civil Twilight 7:29 AM CDT 6:44 PM CDT
Nautical Twilight 6:54 AM CDT 7:20 PM CDT
Astronomical Twilight 6:19 AM CDT 7:54 PM CDT
Moon 2:35 AM CDT (10/29) 3:42 PM CDT (10/29)
Length of Visible Light 11h 15m
Length of Day
10h 13m
Waning Crescent, 25% of the Moon is Illuminated
Oct 29
Waning Crescent
Nov 3
New
Nov 9
First Quarter
Nov 17
Full
Nov 25
Last Quarter

Hourly Weather History & Observations

Time (CDT) Temp. Windchill Dew Point Humidity Pressure Visibility Wind Dir Wind Speed Gust Speed Precip Events Conditions
12:16 AM 30.0 °F 24.1 °F 21.6 °F 71% 30.42 in 10.0 mi NE 5.8 mph - N/A   Clear
12:36 AM 30.0 °F 23.2 °F 21.9 °F 72% 30.41 in 10.0 mi ENE 6.9 mph - N/A   Clear
12:56 AM 30.6 °F 23.1 °F 21.9 °F 70% 30.41 in 10.0 mi East 8.1 mph - N/A   Scattered Clouds
1:16 AM 30.6 °F 24.7 °F 22.5 °F 72% 30.40 in 10.0 mi ENE 5.8 mph - N/A   Mostly Cloudy
1:36 AM 30.6 °F 23.8 °F 21.9 °F 70% 30.40 in 10.0 mi East 6.9 mph - N/A   Overcast
1:56 AM 31.1 °F 23.7 °F 22.1 °F 69% 30.40 in 10.0 mi ENE 8.1 mph - N/A   Overcast
2:16 AM 30.9 °F 25.2 °F 22.3 °F 70% 30.41 in 10.0 mi East 5.8 mph - N/A   Overcast
2:36 AM 31.1 °F 24.5 °F 23.0 °F 72% 30.41 in 10.0 mi East 6.9 mph - N/A   Overcast
2:56 AM 31.1 °F 24.5 °F 23.0 °F 72% 30.41 in 10.0 mi East 6.9 mph - N/A   Overcast
3:16 AM 31.1 °F 24.5 °F 23.5 °F 74% 30.40 in 10.0 mi East 6.9 mph - N/A   Overcast
3:36 AM 31.1 °F 24.5 °F 23.7 °F 74% 30.40 in 10.0 mi East 6.9 mph - N/A   Overcast
3:57 AM 31.1 °F 23.7 °F 23.7 °F 74% 30.38 in 10.0 mi East 8.1 mph - N/A   Overcast
4:16 AM 31.5 °F 24.2 °F 24.3 °F 75% 30.37 in 10.0 mi East 8.1 mph - N/A   Overcast
4:36 AM 31.6 °F 23.1 °F 24.6 °F 75% 30.36 in 10.0 mi East 10.4 mph - N/A   Overcast
4:57 AM 31.6 °F 23.7 °F 25.0 °F 76% 30.34 in 10.0 mi East 9.2 mph - N/A   Overcast
5:16 AM 31.8 °F 24.6 °F 24.8 °F 75% 30.34 in 10.0 mi East 8.1 mph - N/A   Overcast
5:36 AM 31.8 °F 26.2 °F 24.8 °F 75% 30.33 in 10.0 mi East 5.8 mph - N/A   Overcast
5:57 AM 31.6 °F 27.0 °F 24.8 °F 76% 30.33 in 10.0 mi SE 4.6 mph - N/A   Overcast
6:16 AM 31.5 °F - 24.6 °F 76% 30.33 in 10.0 mi Calm Calm - N/A   Overcast
6:36 AM 31.5 °F - 24.6 °F 76% 30.33 in 10.0 mi Calm Calm - N/A   Overcast
6:57 AM 30.9 °F 26.2 °F 25.7 °F 81% 30.32 in 5.0 mi SE 4.6 mph - N/A Snow Light Snow
7:16 AM 30.0 °F - 26.6 °F 87% 30.31 in 3.0 mi Calm Calm - N/A Snow Light Snow
7:36 AM 29.7 °F 26.1 °F 27.1 °F 90% 30.30 in 3.0 mi ESE 3.5 mph - N/A Snow Light Snow
7:56 AM 29.7 °F 24.7 °F 27.5 °F 92% 30.29 in 5.0 mi East 4.6 mph - N/A Snow Light Snow
8:16 AM 29.7 °F 26.1 °F 27.5 °F 92% 30.28 in 7.0 mi ENE 3.5 mph - N/A Snow Light Snow
8:37 AM 29.8 °F 26.3 °F 27.7 °F 92% 30.29 in 7.0 mi East 3.5 mph - N/A Snow Light Snow
8:56 AM 30.0 °F 26.5 °F 27.9 °F 92% 30.29 in 2.5 mi ENE 3.5 mph - N/A Snow Light Snow
9:16 AM 30.0 °F 24.1 °F 28.4 °F 94% 30.29 in 1.8 mi ENE 5.8 mph - N/A Snow Light Snow
9:37 AM 30.0 °F 25.2 °F 28.4 °F 94% 30.30 in 2.5 mi ENE 4.6 mph - N/A Snow Light Snow
9:56 AM 30.2 °F 25.4 °F 28.8 °F 94% 30.29 in 4.0 mi ENE 4.6 mph - N/A Snow Light Snow
10:16 AM 30.6 °F 24.7 °F 28.9 °F 94% 30.29 in 4.0 mi East 5.8 mph - N/A Snow Light Snow
10:37 AM 30.7 °F 24.1 °F 29.3 °F 94% 30.28 in 5.0 mi ENE 6.9 mph - N/A Snow Light Snow
10:56 AM 31.3 °F 25.6 °F 29.8 °F 94% 30.27 in 10.0 mi ENE 5.8 mph - N/A   Overcast
11:16 AM 31.6 °F 26.0 °F 30.0 °F 94% 30.28 in 10.0 mi ENE 5.8 mph - N/A   Overcast
11:37 AM 31.6 °F 24.4 °F 30.2 °F 94% 30.27 in 7.0 mi NE 8.1 mph - N/A Snow Light Snow
11:56 AM 31.6 °F 23.7 °F 30.0 °F 94% 30.27 in 5.0 mi NE 9.2 mph - N/A Snow Light Snow
12:16 PM 31.8 °F 23.9 °F 30.2 °F 94% 30.26 in 7.0 mi NE 9.2 mph - N/A Snow Light Snow
12:36 PM 31.8 °F 25.4 °F 30.2 °F 94% 30.26 in 7.0 mi NE 6.9 mph - N/A Snow Light Snow
12:56 PM 31.8 °F 25.4 °F 30.2 °F 94% 30.25 in 5.0 mi NE 6.9 mph - N/A Snow Light Snow
1:17 PM 31.6 °F 24.4 °F 30.4 °F 95% 30.23 in 2.5 mi NE 8.1 mph - 0.01 in Snow Light Snow
1:36 PM 31.8 °F 25.4 °F 30.7 °F 96% 30.22 in 2.5 mi ENE 6.9 mph - 0.01 in Snow Light Snow
1:56 PM 32.0 °F 25.6 °F 30.9 °F 96% 30.21 in 3.0 mi ENE 6.9 mph - 0.01 in Snow Light Snow
2:17 PM 32.0 °F 26.4 °F 30.9 °F 96% 30.19 in 7.0 mi ENE 5.8 mph - N/A Snow Light Snow
2:36 PM 32.0 °F 25.6 °F 31.1 °F 96% 30.18 in 10.0 mi ENE 6.9 mph - N/A Rain Light Rain
2:56 PM 32.0 °F 25.6 °F 31.1 °F 96% 30.17 in 10.0 mi ENE 6.9 mph - N/A   Overcast
3:17 PM 32.0 °F 24.8 °F 31.1 °F 96% 30.16 in 7.0 mi ENE 8.1 mph - N/A Snow Light Snow
3:36 PM 32.4 °F 24.0 °F 31.3 °F 96% 30.15 in 10.0 mi East 10.4 mph - N/A   Overcast
3:56 PM 32.4 °F 25.3 °F 31.1 °F 95% 30.14 in 10.0 mi East 8.1 mph - N/A   Overcast
4:17 PM 32.9 °F 25.9 °F 31.5 °F 94% 30.13 in 7.0 mi East 8.1 mph - N/A   Light Drizzle
4:36 PM 32.9 °F 25.3 °F 31.8 °F 96% 30.13 in 5.0 mi East 9.2 mph - N/A   Overcast
4:56 PM 32.5 °F 27.1 °F 31.8 °F 97% 30.14 in 5.0 mi ENE 5.8 mph - N/A   Overcast
5:17 PM 32.5 °F 26.2 °F 32.0 °F 98% 30.13 in 2.5 mi ENE 6.9 mph - N/A   Light Drizzle
5:36 PM 32.5 °F 25.5 °F 32.0 °F 98% 30.12 in 2.5 mi East 8.1 mph - N/A   Overcast
5:57 PM 32.5 °F 25.5 °F 32.0 °F 98% 30.11 in 3.0 mi East 8.1 mph - N/A   Overcast
6:16 PM 32.4 °F 26.0 °F 32.0 °F 99% 30.11 in 5.0 mi ENE 6.9 mph - N/A   Overcast
6:36 PM 32.5 °F 25.5 °F 32.0 °F 98% 30.12 in 10.0 mi East 8.1 mph - N/A   Overcast
6:57 PM 32.7 °F 27.3 °F 32.0 °F 97% 30.12 in 10.0 mi East 5.8 mph - N/A   Overcast
7:16 PM 32.5 °F 26.2 °F 32.0 °F 98% 30.13 in 5.0 mi ENE 6.9 mph - N/A   Overcast
7:36 PM 32.5 °F 27.1 °F 32.0 °F 98% 30.13 in 3.0 mi East 5.8 mph - N/A   Overcast
7:57 PM 32.9 °F 26.7 °F 32.2 °F 97% 30.12 in 3.0 mi East 6.9 mph - N/A   Overcast
8:16 PM 32.9 °F 26.7 °F 32.2 °F 97% 30.12 in 4.0 mi East 6.9 mph - N/A   Overcast
8:36 PM 32.9 °F 27.5 °F 32.2 °F 97% 30.11 in 7.0 mi East 5.8 mph - N/A   Overcast
8:57 PM 32.9 °F 26.7 °F 32.2 °F 97% 30.11 in 10.0 mi East 6.9 mph - N/A   Overcast
9:16 PM 33.1 °F 26.1 °F 32.2 °F 96% 30.10 in 10.0 mi East 8.1 mph - N/A   Overcast
9:36 PM 33.1 °F 27.7 °F 32.0 °F 96% 30.11 in 10.0 mi East 5.8 mph - N/A   Overcast
9:57 PM 33.3 °F 27.9 °F 32.2 °F 96% 30.10 in 10.0 mi East 5.8 mph - N/A   Overcast
10:16 PM 33.3 °F 28.9 °F 32.2 °F 96% 30.10 in 10.0 mi East 4.6 mph - N/A   Overcast
10:36 PM 33.3 °F 30.2 °F 32.2 °F 96% 30.11 in 10.0 mi East 3.5 mph - N/A   Overcast
10:56 PM 33.6 °F 30.6 °F 32.4 °F 95% 30.11 in 10.0 mi East 3.5 mph - N/A   Overcast
11:16 PM 33.4 °F 29.1 °F 32.4 °F 96% 30.10 in 10.0 mi ENE 4.6 mph - N/A   Overcast
11:37 PM 33.4 °F 30.4 °F 32.2 °F 95% 30.10 in 10.0 mi ENE 3.5 mph - N/A   Overcast
11:56 PM 33.4 °F 29.1 °F 32.4 °F 96% 30.10 in 7.0 mi East 4.6 mph - N/A   Overcast